User: anonymous   Login
Location: Unspecified
(0.0000°N, 0.0000°E)
Time: 23:32:20
(UTC+00:00)
Language:

ATS 3 - Orbit

View from above orbital plane
View from above orbital plane
View from above satellite
View from above satellite

Ground track
Ground track

The orbit data is extracted from the following two-line orbital elements,

1 03029U 67111A   18260.63306228 -.00000109  00000-0  00000+0 0  9997
2 03029   3.8075 294.0404 0014099 130.4883  54.6365  1.00272137186256
Epoch (UTC): 17 September 2018 15:11:36
Eccentricity: 0.0014099
inclination: 3.8075°
perigee height: 35726 km
apogee height: 35845 km
right ascension of ascending node: 294.0404°
argument of perigee: 130.4883°
revolutions per day: 1.00272137
mean anomaly at epoch: 54.6365°
orbit number at epoch: 18625

The dashed part of the orbit path shows where the satellite is in the earth's shadow,  

DLR